Theta_e
322 323 323 323 323 323 323 324 324 326 327 327 328 328 328 328 328 327 327 327 327 327 329 328 329 328 328 329 328 325 321 323 319 315 312 316 324 329 332 332 333 333 333 327 315 312 310 311 311 314 314 314 315 311 316 314 314 313 305 302 301 303 302 306 304 305 306 303 304 302 304 303 302 301 303 303 303 303 305 304 306 307 306 306 302 303 308 307
322 322 323 323 323 324 324 324 325 325 326 326 326 327 328 327 327 327 327 328 327 327 327 329 328 329 329 328 328 323 322 322 315 315 315 327 332 330 333 334 333 335 331 319 313 312 311 310 310 312 311 309 318 311 312 311 313 307 305 304 301 304 306 307 306 306 304 304 305 305 304 304 304 304 303 301 302 302 301 303 304 304 305 304 302 303 305 305
322 322 323 323 323 323 324 324 325 324 325 325 325 326 326 326 326 327 327 327 327 327 327 328 329 329 328 328 326 318 323 318 318 314 317 326 327 333 332 332 333 334 328 315 314 313 311 310 311 310 310 308 312 309 310 311 308 308 305 302 303 308 307 306 306 305 306 306 304 304 304 303 305 305 304 300 302 304 301 302 302 302 303 304 301 302 303 303
321 322 322 322 322 323 323 324 324 323 323 324 325 325 325 325 326 327 327 326 326 326 326 328 328 328 328 326 323 331 324 319 309 313 316 329 331 330 332 331 331 330 326 315 313 313 312 311 311 310 310 307 310 312 306 309 305 309 304 301 305 306 304 306 306 306 305 305 304 304 304 302 305 304 303 302 301 302 304 306 305 303 304 306 303 301 302 302
321 321 322 321 322 322 323 323 323 324 324 324 324 325 324 325 326 326 326 326 326 326 327 327 329 328 325 326 316 330 320 306 309 314 318 328 329 331 328 332 327 325 319 314 312 311 311 311 309 309 309 306 309 308 306 308 308 307 304 307 306 306 303 306 305 304 303 303 302 303 301 302 306 304 302 303 300 301 305 308 308 308 308 308 303 302 302 302
320 320 321 321 321 321 322 323 323 323 323 323 324 324 324 325 325 326 325 326 326 326 326 328 329 328 327 325 328 326 314 298 313 320 323 324 328 325 329 328 326 323 315 311 311 311 310 310 309 306 305 306 306 304 307 307 307 300 306 306 307 306 304 305 304 302 302 302 302 301 304 304 302 302 304 303 302 305 307 307 307 308 308 308 305 303 302 302
319 320 320 320 320 321 321 322 322 322 323 324 324 324 325 325 325 325 325 325 325 326 325 328 328 327 326 325 324 320 310 311 313 321 324 323 321 327 325 323 321 316 312 310 310 310 311 310 308 307 306 306 306 306 306 305 304 303 302 305 304 305 303 305 303 301 301 302 301 304 303 301 302 299 305 303 305 307 308 306 306 305 306 307 304 303 303 302
319 319 319 319 319 319 321 322 321 322 322 323 324 323 324 325 324 324 325 325 325 325 326 326 327 326 325 330 317 309 311 310 316 316 318 320 320 319 323 318 315 315 311 310 310 310 311 308 308 309 306 304 306 305 305 303 304 302 302 305 304 302 304 305 303 301 301 301 304 301 300 301 302 302 303 301 304 307 307 308 305 304 304 305 304 303 303 303
319 319 318 319 319 319 320 320 321 321 322 322 323 323 324 324 324 324 324 324 325 324 325 325 323 326 321 321 314 309 308 321 314 315 317 315 315 314 314 315 313 312 311 310 309 311 310 309 309 309 304 305 306 304 303 302 301 304 303 304 303 303 304 304 303 302 302 302 302 299 299 302 303 304 299 302 304 306 307 307 306 304 303 303 303 303 303 303
319 318 318 318 318 319 319 319 320 321 321 322 322 323 323 324 324 324 324 324 324 324 325 325 322 320 323 316 314 303 316 311 314 316 313 313 313 313 312 315 312 311 309 309 310 310 309 311 310 310 309 307 306 303 304 302 301 301 302 302 302 303 303 304 301 302 303 302 302 299 300 301 301 300 298 306 305 307 307 306 306 304 302 303 303 303 303 303
318 318 318 318 318 318 319 319 319 320 320 321 321 322 323 323 323 324 323 323 324 324 325 325 325 322 321 316 308 303 315 317 314 315 313 313 312 312 316 314 311 312 309 311 309 311 313 311 312 310 308 305 304 304 302 303 302 302 300 301 302 302 303 303 302 301 302 300 302 301 299 301 301 299 298 303 301 304 305 305 304 303 302 303 303 303 304 303
319 319 318 318 318 318 318 319 319 319 320 320 321 321 322 323 323 323 323 323 323 324 326 321 321 320 317 312 307 310 310 316 317 316 314 317 313 313 314 311 310 317 313 309 313 317 315 314 312 308 303 307 303 304 303 302 302 301 300 298 301 303 301 303 301 301 301 300 301 301 297 297 298 297 302 304 301 303 303 303 303 302 302 303 304 303 303 302
319 318 318 318 318 317 318 318 318 318 318 319 320 321 322 323 323 322 323 322 323 325 323 322 315 318 317 307 311 312 314 315 315 315 314 316 313 313 312 314 312 309 312 310 312 315 313 312 311 307 308 306 305 301 301 302 301 301 301 299 299 299 299 304 304 302 299 300 300 301 292 297 299 300 304 306 302 302 301 302 302 302 302 302 303 302 302 302
319 318 318 318 318 317 318 318 318 318 318 319 320 320 321 322 322 322 322 322 323 324 326 321 328 320 314 306 312 313 312 316 313 314 314 316 315 315 315 315 314 312 316 313 312 312 311 308 310 307 307 304 302 304 301 301 300 297 301 299 296 296 297 302 301 300 297 300 299 300 293 296 301 304 305 304 304 301 301 302 302 303 302 302 302 302 302 302
319 319 318 318 318 317 317 318 317 317 318 318 319 320 320 320 321 321 321 324 325 325 322 323 324 317 307 307 310 313 319 312 310 315 316 311 311 311 311 311 310 311 311 311 310 308 309 312 310 304 303 302 303 301 300 301 300 300 297 295 299 296 299 299 302 299 299 297 300 299 294 295 300 303 305 304 303 302 301 302 303 304 303 302 302 301 301 301
319 318 318 318 318 318 317 317 317 317 317 318 318 319 319 319 320 321 323 324 322 323 326 321 317 315 307 303 312 317 313 308 310 317 314 312 317 311 314 311 310 310 309 307 309 308 308 310 305 305 302 301 300 300 299 299 300 301 297 296 296 298 299 300 299 300 301 299 299 298 294 298 298 303 301 301 302 301 301 302 303 303 304 303 302 301 301 301
319 319 318 318 318 318 318 317 317 317 317 317 318 319 319 319 320 321 324 322 322 323 327 313 314 312 301 312 312 308 308 312 311 313 311 311 310 313 310 310 308 307 309 308 309 310 308 305 304 304 304 301 302 301 296 295 295 298 300 296 299 297 298 296 297 297 300 299 296 297 295 296 299 302 302 299 302 301 301 302 302 303 303 304 304 302 301 301
319 319 319 318 318 318 317 317 317 317 317 317 317 319 319 321 320 321 320 322 323 322 320 314 314 308 304 307 304 305 310 309 315 312 313 309 310 310 310 306 307 307 307 306 307 305 307 303 304 299 302 300 300 298 294 290 295 296 296 296 297 299 298 297 297 298 297 297 296 297 296 296 299 301 302 303 302 301 301 301 302 302 303 303 304 303 302 301
319 319 319 319 318 318 318 317 317 317 317 318 319 321 321 321 322 320 316 312 311 307 301 304 305 297 297 306 307 308 313 312 312 311 307 309 309 310 308 310 309 305 303 301 303 303 305 304 305 300 296 298 298 298 297 298 299 297 298 297 297 294 296 297 300 296 298 295 294 295 294 297 299 300 302 303 304 302 301 302 302 302 302 303 303 304 303 302
319 319 319 319 318 317 318 318 317 317 317 316 316 318 319 312 314 306 307 310 305 305 306 308 308 307 306 303 306 310 312 313 307 310 311 310 308 306 306 306 308 305 302 300 303 302 307 298 297 296 298 300 302 301 300 301 301 299 299 297 295 295 296 300 301 295 298 295 295 296 296 297 297 299 301 302 302 302 301 301 301 302 302 303 303 303 304 303
319 319 319 319 318 318 317 317 317 317 317 316 316 311 300 301 299 298 302 304 308 308 306 306 307 306 305 311 311 307 305 306 309 308 309 312 310 305 302 304 302 299 301 302 303 302 302 296 297 300 301 302 302 303 303 301 300 298 297 296 295 297 295 300 299 294 296 293 295 298 296 296 297 299 300 301 300 299 300 301 301 302 303 304 304 303 304 303
319 319 319 319 318 318 317 317 317 317 316 316 314 307 305 304 309 307 300 297 305 308 308 307 305 303 306 306 312 313 308 304 304 307 310 308 305 301 303 301 300 297 303 302 301 298 297 294 298 301 303 303 301 301 301 299 298 298 296 296 295 296 299 301 296 294 294 293 292 296 294 295 297 299 300 300 300 301 302 302 302 302 303 303 304 305 305 303
319 319 319 319 318 318 318 317 317 317 314 313 312 307 307 306 309 311 307 303 300 309 306 304 302 302 303 307 306 308 302 300 300 306 306 308 303 302 303 299 299 299 303 301 297 296 294 297 301 303 303 300 300 298 298 297 297 296 296 294 292 297 297 293 295 293 294 294 294 295 292 293 296 298 298 300 300 301 303 303 304 304 303 304 304 305 305 302
319 319 319 319 318 318 318 317 317 317 313 309 309 307 307 306 307 309 309 298 297 304 306 306 305 304 303 303 308 304 301 301 302 302 308 306 301 303 302 301 299 299 298 300 298 297 296 300 299 300 301 300 298 298 295 295 294 297 297 296 295 296 297 297 296 294 296 295 293 293 292 293 296 296 297 300 302 301 302 302 303 303 305 305 307 307 306 303
319 318 318 318 317 318 317 317 313 310 313 311 308 306 307 305 305 308 304 299 299 300 309 306 308 307 307 308 307 302 303 302 303 307 307 306 303 301 300 304 300 296 298 300 299 297 297 301 301 298 298 298 298 296 296 297 293 295 299 297 298 298 297 298 298 294 293 293 293 293 288 290 296 298 298 300 298 297 299 299 299 300 302 303 303 304 305 305
319 318 318 318 318 317 317 313 312 312 311 310 308 308 307 307 308 307 303 296 291 301 300 297 309 301 313 303 306 304 302 298 304 305 307 306 307 304 302 298 301 295 298 299 297 298 298 299 298 299 299 298 297 296 298 298 294 292 296 300 299 298 297 297 296 294 289 288 293 293 288 285 295 294 297 299 298 298 300 300 300 301 301 303 306 305 303 303
319 318 318 318 318 317 311 307 313 312 310 311 310 310 306 307 311 306 296 293 289 301 297 305 302 302 311 305 304 303 291 296 300 303 304 306 302 308 298 298 299 299 300 301 297 294 299 296 296 298 298 297 296 294 298 298 295 293 295 296 296 296 296 295 295 293 291 296 296 293 292 286 286 293 297 298 296 297 298 298 300 302 303 302 303 306 303 303
319 319 318 318 316 316 312 311 311 309 307 309 312 309 309 308 309 308 295 284 284 306 299 298 303 309 307 303 306 298 296 296 297 298 301 302 302 302 298 297 298 297 298 298 289 303 299 297 295 295 295 295 295 297 301 301 296 295 293 297 295 295 295 295 294 292 292 290 287 291 294 287 287 293 297 297 294 295 295 297 298 300 302 304 305 306 304 304
318 318 317 317 315 314 316 313 310 308 311 312 310 310 309 310 304 299 292 282 301 300 309 299 310 305 301 302 299 298 297 299 295 297 302 302 303 300 296 298 299 299 300 298 293 299 296 297 299 299 296 294 298 293 296 300 295 294 295 295 295 295 294 294 292 291 290 287 284 289 292 286 287 294 294 296 295 294 295 298 299 301 302 304 306 306 304 304
318 318 318 315 315 315 315 314 310 313 311 310 308 308 310 306 301 292 287 280 304 294 300 302 299 299 301 297 297 298 294 296 296 297 300 299 301 301 298 299 298 297 297 298 297 298 295 295 296 296 297 299 293 291 292 293 294 295 296 295 294 293 292 291 292 290 288 283 286 291 292 290 284 292 293 292 293 296 298 299 300 302 304 304 307 306 304 302
318 318 317 315 313 317 313 308 313 312 310 309 307 308 307 302 292 288 282 292 299 298 300 298 296 303 297 297 295 299 297 297 295 297 294 297 296 298 299 296 301 296 295 295 293 297 295 294 295 297 297 294 296 292 292 293 295 296 293 293 293 291 291 289 288 289 284 283 290 293 292 292 283 288 294 296 299 299 299 298 300 301 302 305 307 304 303 302
318 317 317 316 317 318 310 308 312 312 310 310 308 307 301 289 294 284 285 298 290 297 297 297 300 299 298 300 301 297 296 297 297 295 295 293 294 293 293 293 294 289 289 290 290 297 293 294 297 296 296 296 293 295 290 292 292 294 293 292 287 286 287 284 285 282 283 283 288 291 294 289 287 291 296 297 298 299 300 300 300 301 301 304 308 305 303 302
317 317 316 317 315 314 314 316 314 313 311 308 305 303 292 287 282 290 290 294 291 301 296 304 299 298 299 298 297 299 300 296 298 295 298 297 295 295 297 296 299 297 291 295 292 292 294 297 296 297 294 295 297 291 291 287 289 291 290 288 286 283 283 280 284 287 287 289 290 288 292 286 291 293 297 297 299 300 300 301 303 302 301 303 309 306 302 300
318 317 315 316 317 316 317 315 315 314 310 308 303 296 292 284 285 298 294 293 297 295 299 298 297 299 299 295 298 300 294 299 295 295 296 295 293 292 295 296 298 297 295 292 289 291 288 288 293 295 292 297 295 295 297 295 290 290 295 292 289 288 284 280 284 282 284 287 286 288 284 283 284 290 298 298 300 301 301 301 303 303 304 305 299 302 300 298
317 317 317 317 316 317 315 314 313 312 309 305 298 291 284 284 290 290 292 294 298 298 296 297 298 296 295 296 298 299 299 296 298 295 293 294 292 292 294 295 297 298 298 289 293 290 291 290 298 299 298 296 294 298 301 296 292 292 294 296 290 288 293 285 287 286 285 284 284 284 283 290 290 297 299 301 301 300 301 301 302 302 303 303 297 298 297 296
316 315 317 313 311 315 313 314 313 313 306 301 293 285 284 289 288 294 293 299 297 296 295 296 299 295 294 295 299 297 303 295 297 296 294 294 296 294 298 299 297 297 294 290 294 287 289 288 296 295 294 295 294 295 298 300 288 292 292 287 291 297 294 289 288 287 283 284 282 288 287 290 295 296 298 298 298 298 299 300 300 300 301 301 299 299 297 296
313 315 309 312 312 315 313 312 310 308 303 296 288 283 290 291 296 297 298 295 296 298 296 290 292 291 291 291 295 295 296 297 294 294 292 297 292 296 297 298 302 298 298 296 291 295 288 291 290 293 289 290 289 292 294 294 296 292 286 292 296 298 296 289 283 286 284 281 283 289 286 287 289 285 295 296 295 296 297 297 298 299 299 299 299 299 299 297
313 311 311 311 314 314 313 311 309 304 299 293 286 289 294 291 297 297 298 296 294 298 294 291 293 297 291 292 292 295 297 293 293 293 291 296 291 302 297 297 301 299 298 299 292 294 296 286 292 289 290 290 290 293 292 295 294 292 291 295 289 285 283 288 286 278 279 279 282 286 288 288 290 289 291 292 292 294 296 297 296 297 298 299 299 299 300 299
313 309 303 312 315 313 310 311 307 300 295 288 286 287 294 296 300 297 297 297 299 296 291 294 292 296 295 291 294 297 296 290 295 292 289 294 290 300 298 299 298 300 299 297 292 293 296 287 288 286 289 290 290 291 285 289 292 292 293 291 294 289 288 286 286 286 285 280 281 281 285 284 295 294 294 293 294 295 296 296 296 297 299 298 298 298 298 299
309 302 301 313 313 312 310 310 302 297 291 285 288 290 298 295 298 298 296 296 296 293 292 292 295 290 294 295 296 292 296 295 294 293 293 296 294 300 297 301 300 299 299 297 293 296 289 292 285 286 286 291 285 289 288 291 286 286 286 286 289 287 290 289 289 287 285 282 282 281 281 286 294 297 296 295 296 297 297 297 298 298 298 298 298 298 298 299
311 303 302 311 312 312 310 304 296 290 288 293 295 293 296 295 297 296 298 298 296 295 292 294 293 290 291 290 290 294 292 292 293 292 294 294 294 290 299 300 301 298 297 296 294 293 288 286 285 287 284 285 289 294 293 295 294 291 288 287 288 286 284 282 281 290 286 285 281 281 280 287 295 298 296 296 297 298 299 298 300 299 297 297 298 298 298 299
305 296 300 309 311 311 303 293 292 295 292 290 290 294 293 299 296 297 296 296 295 292 294 290 291 290 289 289 291 292 289 288 290 290 293 291 296 295 300 302 301 299 294 288 290 294 293 289 287 286 287 290 292 296 292 293 293 295 293 290 293 291 289 285 280 284 285 286 287 286 283 285 296 297 298 297 297 297 298 299 298 298 298 297 298 298 299 299
302 300 305 308 311 308 300 291 293 291 288 294 299 298 300 298 296 298 296 296 293 293 290 290 290 290 290 289 291 289 290 287 290 289 292 294 295 297 303 299 302 300 300 291 295 291 292 287 284 286 290 293 290 289 291 290 292 291 291 293 293 289 290 289 288 289 286 286 283 283 280 285 295 298 298 299 298 298 298 298 297 296 297 297 297 298 298 298
304 301 300 308 311 308 297 286 286 286 289 294 295 295 300 297 296 294 294 296 292 289 290 289 289 292 290 293 289 288 292 284 290 289 288 291 290 298 297 299 298 295 295 292 290 294 287 287 286 283 283 284 288 289 287 288 290 288 289 291 293 294 293 292 290 288 283 285 286 284 279 285 295 296 296 296 296 295 295 295 296 296 296 296 296 297 297 296
303 302 300 302 307 305 295 297 293 290 289 290 292 291 293 295 297 297 297 296 297 292 290 289 293 292 290 292 290 290 290 289 286 291 291 291 291 297 297 299 299 294 295 298 293 298 289 288 285 280 277 276 277 278 282 284 283 287 290 290 292 291 290 288 284 286 281 284 286 283 283 289 294 296 296 297 296 295 296 296 295 296 296 296 295 296 295 295
298 291 297 297 301 299 298 302 299 296 291 289 289 291 294 292 297 299 299 297 298 295 294 295 291 293 291 289 287 287 288 292 289 286 288 288 291 294 296 294 295 294 294 294 294 294 287 288 288 286 283 282 284 287 292 291 287 283 286 287 289 291 291 290 288 285 282 284 284 286 287 288 290 293 294 295 296 296 296 297 295 291 292 295 297 296 296 295
301 295 292 287 296 296 294 298 296 297 292 294 287 292 290 292 294 295 300 292 297 296 295 294 292 289 287 289 288 288 289 289 290 289 287 288 290 292 292 292 293 293 290 292 292 291 285 284 287 288 287 287 289 289 291 292 288 288 287 287 289 289 288 286 284 282 288 285 280 287 289 287 288 292 293 294 295 296 297 297 297 295 293 293 293 294 294 294
291 297 301 298 293 287 289 288 294 294 296 296 290 295 292 292 292 290 297 298 298 298 293 293 292 292 293 291 290 286 287 287 288 286 288 288 288 290 289 292 288 292 290 290 291 288 285 283 287 287 286 290 290 290 291 290 289 289 289 289 287 289 287 284 285 288 289 284 281 287 289 287 289 292 294 295 296 296 297 297 298 298 296 294 293 293 293 293
298 297 298 303 294 297 295 294 295 293 293 295 292 293 291 292 291 295 295 292 295 294 297 289 291 292 292 293 290 287 289 286 285 288 287 287 288 287 286 288 289 290 289 288 287 287 286 284 286 287 285 287 287 288 290 289 288 288 288 289 289 289 288 288 287 289 289 287 289 289 289 289 292 293 295 296 298 298 298 298 298 297 296 297 295 292 293 293
291 294 292 300 298 296 297 297 295 293 290 293 290 291 293 292 292 295 297 295 291 293 298 293 293 295 293 292 291 288 290 292 291 289 290 289 288 288 287 289 287 286 287 286 288 288 287 282 288 286 283 284 286 287 288 288 287 286 288 289 288 288 289 289 289 289 289 289 290 289 288 288 293 295 296 297 298 297 297 296 296 296 296 296 296 295 295 295
297 299 297 292 287 290 292 292 292 292 289 291 290 291 294 293 293 296 296 300 296 294 295 293 295 296 296 294 293 292 294 294 295 295 296 293 288 292 289 287 293 285 286 285 287 286 287 283 287 285 281 281 285 286 286 288 287 286 285 286 286 286 285 287 287 289 287 285 287 287 285 286 292 295 296 296 296 295 294 295 295 295 296 295 295 295 295 295
297 297 298 293 285 291 289 291 292 290 286 290 292 292 292 293 296 297 293 299 300 300 299 298 298 296 295 295 293 295 297 297 297 299 299 299 300 297 296 295 294 289 286 286 289 285 286 285 283 283 280 279 285 286 285 285 284 281 282 286 287 288 289 289 291 291 291 291 286 284 285 291 293 295 294 294 294 294 294 294 295 295 296 296 295 295 295 296
Wind_Speed
13 14 14 14 14 14 14 14 15 15 16 16 16 16 16 16 15 14 13 14 14 12 9 8 6 5 4 3 2 2 4 4 5 7 7 2 6 5 3 1 1 1 5 3 3 5 6 7 7 6 5 4 3 5 4 3 1 3 5 6 7 7 8 2 5 5 3 8 3 6 8 8 8 6 5 1 7 9 9 8 9 7 8 2 7 4 8 13
14 13 13 13 14 14 13 14 14 14 15 15 15 15 16 17 15 15 14 13 14 14 11 8 7 5 5 4 1 2 3 6 10 9 9 4 6 4 4 1 1 4 5 5 5 6 6 6 7 7 6 6 4 2 4 2 3 5 5 5 8 6 3 2 4 6 5 6 2 3 6 8 8 8 7 7 9 11 13 14 10 12 11 8 9 8 11 13
15 15 13 14 14 14 14 13 14 14 14 14 14 15 15 15 15 16 15 14 13 13 12 9 7 6 5 4 1 3 2 8 9 14 3 3 5 3 1 1 1 5 5 5 3 5 6 6 4 7 7 7 6 4 5 3 4 8 5 7 8 3 3 2 2 6 5 5 5 4 5 7 6 2 8 7 11 11 16 12 12 15 15 16 13 12 13 14
15 15 14 14 14 14 14 14 14 14 14 14 14 15 15 15 15 16 15 15 15 14 13 9 7 6 6 3 1 3 4 6 10 1 5 6 4 2 1 2 2 5 5 6 5 4 4 5 5 8 5 7 4 3 5 4 5 3 5 7 5 4 5 4 3 4 3 2 7 6 1 5 7 6 7 6 9 15 15 14 13 15 17 15 16 15 14 15
14 14 14 14 14 15 14 14 14 14 15 15 14 14 14 15 14 15 15 15 15 15 13 11 8 6 5 3 3 3 3 7 1 4 7 6 4 2 1 0 2 4 5 2 3 4 5 4 4 5 5 6 5 5 9 5 3 2 8 9 6 2 6 2 0 4 0 1 4 6 5 7 1 5 10 11 12 12 7 7 15 15 12 13 17 16 15 16
14 14 14 14 15 15 15 15 15 15 15 15 15 14 14 14 14 15 15 14 14 14 13 11 8 6 5 5 5 5 3 4 2 3 5 5 3 3 2 2 2 5 4 5 5 3 6 5 5 5 5 8 7 7 3 4 5 7 10 12 7 6 8 2 2 2 1 4 7 7 7 1 6 8 10 14 18 15 2 2 4 2 3 1 17 15 15 17
13 14 14 14 15 15 16 15 16 16 16 16 15 15 14 13 13 14 15 14 14 13 13 11 8 7 5 4 5 5 9 7 5 4 3 4 3 1 2 2 3 4 6 6 6 5 6 6 6 7 8 8 9 9 4 4 5 8 8 2 6 4 8 2 2 4 3 5 8 5 4 7 8 13 9 16 20 19 12 4 3 3 3 7 12 16 17 18
12 13 14 14 15 15 16 16 16 16 16 16 16 16 15 14 13 13 14 14 13 13 12 10 9 7 3 3 4 5 7 8 5 2 3 1 3 4 3 3 4 3 6 8 6 7 4 8 7 2 7 9 3 6 3 4 8 9 9 8 3 1 8 6 3 4 4 7 6 2 8 13 11 12 7 18 17 15 16 8 6 6 6 8 11 14 15 16
11 13 14 15 15 15 16 17 17 17 17 17 17 16 16 15 14 13 13 14 13 14 11 7 8 8 3 4 5 6 9 3 2 4 1 3 3 5 1 3 5 6 4 5 4 6 4 5 5 4 6 6 2 9 2 5 8 10 10 6 7 6 6 5 6 7 8 4 5 6 13 12 13 5 15 23 20 16 14 15 11 8 9 11 13 14 15 15
11 13 14 15 15 15 16 17 17 18 17 17 17 18 16 16 15 14 15 15 13 12 10 7 5 7 5 3 5 7 1 2 2 2 3 3 4 4 5 3 2 6 6 3 4 6 6 5 3 4 5 10 5 6 4 5 4 3 7 7 9 10 7 7 10 10 6 7 6 10 12 11 3 2 13 9 7 8 14 14 12 10 12 13 12 12 14 15
10 12 13 14 14 15 16 17 18 18 19 19 18 18 18 16 15 14 14 16 14 11 7 6 4 2 4 4 7 8 2 2 1 2 2 2 2 3 0 2 2 4 7 2 4 3 5 3 2 1 3 3 1 4 5 3 6 6 6 10 13 14 13 10 9 11 5 8 12 10 12 11 7 6 19 8 3 4 9 10 11 11 11 11 13 13 12 13
9 10 12 13 13 13 15 16 18 18 19 20 20 19 18 18 16 14 14 15 13 8 4 2 1 3 6 8 8 5 0 3 1 2 3 2 2 2 1 1 2 3 5 6 3 1 3 1 4 3 5 5 6 4 5 3 4 4 6 10 12 11 11 13 14 11 11 6 7 4 9 14 13 13 24 16 8 8 9 10 11 12 11 11 11 12 12 13
8 9 11 11 12 14 14 15 17 18 19 20 20 20 19 18 17 15 14 14 7 6 2 2 0 3 5 8 6 3 2 3 3 4 4 4 5 3 3 1 1 2 2 5 2 2 0 1 2 8 2 4 8 5 3 4 2 5 9 9 12 12 15 16 10 5 8 5 7 5 8 12 16 24 20 8 10 9 8 11 12 11 11 11 12 11 12 11
7 8 11 11 11 13 14 15 16 17 19 19 20 21 20 19 16 15 14 11 11 5 1 2 2 4 4 8 3 1 2 1 1 3 4 3 4 3 3 2 2 1 1 2 5 2 2 0 3 1 1 4 4 4 5 3 4 6 2 2 8 9 12 8 8 10 8 5 8 5 10 15 11 13 16 10 10 11 11 11 12 12 11 11 11 11 12 13
8 8 9 10 12 13 14 14 15 17 18 19 20 20 21 20 17 15 12 9 1 2 2 3 4 3 6 4 5 4 2 1 4 5 3 4 5 4 4 5 5 4 4 5 3 1 1 1 3 5 4 2 2 5 8 9 7 7 6 9 8 9 8 8 7 12 10 4 8 8 9 14 18 13 8 9 10 9 10 11 11 12 12 12 12 12 12 13
8 10 10 11 11 14 14 13 14 16 18 19 19 21 21 20 14 12 8 3 3 3 2 3 5 5 6 11 2 4 3 5 5 5 2 2 4 3 5 5 4 4 3 4 2 1 2 3 5 3 2 3 5 7 9 9 9 9 9 11 12 10 10 8 11 9 6 7 8 14 9 8 12 6 5 5 8 8 9 11 12 15 16 14 13 12 12 12
9 10 10 11 12 14 13 13 13 16 17 18 21 20 19 15 10 7 2 5 2 2 3 2 4 4 7 2 3 4 5 4 3 3 3 1 1 3 6 5 4 4 4 4 2 3 4 5 3 3 5 9 7 5 5 9 10 9 10 10 10 12 10 10 6 6 7 8 8 13 12 16 16 14 5 7 8 10 11 15 17 17 17 16 13 13 13 14
9 9 10 11 13 13 13 14 15 17 18 19 20 18 16 16 7 1 4 4 1 3 2 2 3 2 9 4 7 2 4 4 3 3 2 1 3 4 4 4 2 5 5 5 3 6 5 5 4 8 6 8 8 8 7 10 9 9 10 9 10 11 13 15 11 7 8 8 11 11 16 19 19 17 19 14 11 13 15 16 18 19 19 16 15 14 15 14
9 10 11 12 13 13 13 14 17 18 19 21 22 20 11 6 2 4 4 4 4 3 4 6 6 7 6 3 5 6 1 3 3 3 5 6 3 2 1 1 6 7 6 6 4 9 5 5 3 6 11 11 12 13 13 16 14 16 14 12 12 12 12 12 5 7 10 9 10 14 16 17 18 17 18 16 16 15 14 15 17 19 18 16 16 16 14 13
9 10 11 12 13 13 14 15 17 18 20 16 10 7 3 4 3 3 5 7 10 11 7 2 12 6 3 5 5 4 2 4 4 5 5 1 7 6 6 6 4 5 8 7 6 6 2 7 8 10 14 13 13 15 18 17 14 12 9 10 15 16 18 16 12 5 4 6 13 16 18 19 20 19 17 18 17 17 19 19 19 18 15 14 14 15 15 13
8 10 10 11 13 13 15 16 17 18 19 10 9 4 5 5 7 7 1 7 11 10 12 11 7 8 9 5 5 7 4 6 5 6 6 6 4 8 8 7 7 8 10 11 7 4 3 9 13 20 17 16 12 8 10 14 13 12 14 14 14 13 16 13 7 7 5 4 10 12 16 18 19 17 17 18 18 21 20 22 22 19 18 14 15 15 14 10
8 9 10 11 12 14 15 15 16 17 17 6 5 4 3 4 3 3 3 9 8 9 2 7 3 9 3 3 4 2 2 6 7 9 4 7 7 9 8 11 10 11 6 8 4 4 8 12 18 19 11 3 1 6 8 12 14 12 10 11 11 14 13 16 4 5 4 4 11 11 15 17 18 17 18 19 21 18 18 21 20 17 16 14 14 13 10 8
9 8 9 10 12 14 15 16 15 16 7 3 3 4 2 3 5 4 2 7 12 8 11 9 9 12 12 3 3 3 8 12 12 12 12 9 9 11 7 10 11 11 7 11 11 9 10 13 22 16 5 7 8 5 7 9 11 10 9 8 12 11 6 7 4 2 6 5 8 11 15 18 20 20 23 24 21 19 17 17 18 16 15 16 15 9 8 10
9 8 9 10 11 13 16 16 18 9 3 3 5 3 3 3 4 4 3 6 7 5 9 7 8 12 14 9 8 11 14 10 8 12 11 12 11 7 8 14 13 11 13 15 17 14 15 8 6 4 4 6 12 7 7 8 9 10 12 12 13 11 12 10 6 2 7 12 4 9 13 15 14 14 13 16 17 13 14 11 13 14 12 14 11 7 7 10
9 8 9 10 10 13 16 17 6 4 6 6 1 2 2 3 3 4 4 7 7 7 5 3 5 6 5 6 6 9 10 8 10 3 10 13 12 7 10 7 9 15 15 15 15 16 18 13 5 3 4 6 7 9 11 9 10 10 13 17 16 15 15 15 5 8 7 11 5 4 12 12 9 10 11 5 5 7 8 8 13 14 12 10 12 10 9 7
9 8 8 9 10 12 18 7 3 6 8 2 3 3 3 1 3 3 3 5 11 4 3 7 8 3 5 6 6 7 9 8 2 2 9 2 4 6 4 7 8 14 14 16 14 9 10 4 4 9 8 6 8 12 12 8 11 9 7 5 15 16 15 12 10 5 7 8 3 5 6 16 7 7 8 5 7 8 7 8 11 9 10 10 9 7 10 10
9 8 7 6 7 10 9 2 7 9 6 2 2 4 3 3 2 4 3 6 12 8 8 3 2 2 1 4 7 6 4 4 3 4 4 2 7 3 8 8 4 3 3 1 1 8 7 4 4 3 8 9 8 11 12 14 9 9 4 3 1 5 8 10 7 7 12 10 8 6 5 17 14 8 8 10 11 7 8 12 15 11 9 11 12 7 10 10
10 9 8 3 2 3 4 7 8 6 4 2 4 4 3 3 4 4 2 9 6 7 5 4 1 2 2 2 3 7 3 3 3 4 4 1 1 5 8 15 12 9 8 6 14 2 6 6 8 8 9 7 12 8 2 12 10 2 2 3 2 1 4 1 4 7 8 9 9 6 8 10 13 5 17 15 12 12 13 15 16 16 15 11 11 7 9 10
10 9 8 4 3 1 4 6 6 6 4 4 4 4 2 2 5 4 2 10 4 3 5 4 0 3 4 3 6 1 2 1 3 4 1 1 5 2 9 13 12 9 9 14 14 2 2 2 4 9 7 10 4 4 3 7 11 3 4 7 6 4 3 2 4 5 8 7 14 7 11 7 23 4 9 13 14 13 14 15 16 16 14 10 7 7 8 8
12 11 8 9 4 5 5 2 4 2 2 2 3 5 3 4 3 5 5 12 3 4 5 3 5 7 11 9 7 6 5 2 2 3 5 4 7 3 2 3 4 5 7 8 9 7 3 1 3 2 10 4 6 5 4 6 5 8 4 3 2 1 3 2 4 4 5 13 15 13 17 12 19 2 10 10 9 13 12 10 11 11 9 9 7 8 7 8
13 12 11 12 6 1 2 5 3 2 1 2 3 4 3 3 5 4 16 3 6 2 4 5 7 9 12 13 7 11 8 5 4 8 4 2 5 7 3 3 4 4 5 6 8 13 6 5 2 5 2 5 5 6 5 1 1 5 3 4 2 5 2 4 3 3 5 16 6 16 18 20 14 4 7 12 13 16 14 9 10 10 8 7 7 7 9 9
15 14 14 13 7 5 6 2 5 3 1 1 3 3 4 5 5 14 10 9 6 6 11 8 8 8 11 12 5 9 10 7 9 9 10 8 7 10 13 11 8 4 8 8 9 5 8 12 9 4 3 8 5 4 3 3 3 4 5 4 5 4 1 5 4 5 10 12 5 4 12 11 23 18 4 5 8 13 10 7 8 8 8 6 5 8 8 8
15 15 17 13 6 7 10 3 6 4 4 2 1 4 4 5 12 16 8 7 5 5 3 4 9 11 6 9 8 6 1 6 11 10 8 6 8 10 11 12 10 6 7 4 8 2 4 4 9 9 4 8 9 9 5 3 10 10 10 9 5 8 8 9 8 8 10 7 4 6 2 13 9 10 15 19 12 12 12 9 8 9 8 7 3 7 7 6
16 15 11 13 14 10 5 7 4 7 2 1 2 5 4 7 17 7 11 11 10 3 4 3 4 5 5 10 5 10 5 7 9 8 11 7 9 10 11 17 13 7 4 3 5 5 7 7 10 13 7 13 16 17 12 5 12 14 10 10 10 7 3 6 7 9 10 6 2 3 2 5 2 2 14 21 21 16 11 9 10 10 7 2 4 3 5 5
17 14 12 9 11 12 8 8 7 7 5 2 3 7 10 15 10 4 6 6 3 1 2 2 5 7 9 9 1 6 8 4 11 8 10 10 9 10 12 14 19 11 2 6 5 1 11 14 3 9 4 15 14 13 3 6 2 9 8 7 7 12 8 13 6 5 4 7 10 6 7 4 7 5 4 5 13 15 10 13 10 10 9 5 3 5 6 6
12 9 10 7 7 8 9 8 9 8 9 4 5 7 16 12 4 5 5 3 2 7 5 2 2 7 8 7 5 9 4 4 7 7 7 12 12 11 11 7 14 23 12 12 4 3 2 9 7 4 0 8 4 3 8 4 7 7 9 9 9 5 6 7 9 1 2 3 16 4 9 13 10 17 12 8 12 14 15 14 11 12 12 8 8 8 8 8
11 6 6 9 9 11 11 10 8 9 8 10 9 11 15 7 14 10 1 4 1 1 6 11 8 9 8 9 7 11 5 2 6 6 7 6 10 16 9 12 10 17 19 11 5 5 8 5 1 6 7 2 1 5 3 4 2 8 6 6 5 3 4 3 7 3 6 9 15 8 15 16 9 11 11 15 15 15 17 14 14 13 11 10 11 11 11 10
7 5 10 13 13 14 14 11 10 7 7 9 13 17 7 13 8 15 3 3 2 6 8 10 8 12 10 10 10 11 10 11 8 8 8 10 8 12 15 6 13 14 20 16 9 2 2 6 3 2 5 3 1 1 4 2 4 2 1 7 4 5 5 9 4 8 8 11 9 16 23 17 16 12 6 13 14 16 15 13 11 11 10 12 12 13 11 9
5 3 4 13 13 16 14 12 9 11 7 8 11 15 9 12 6 6 5 6 1 6 9 11 12 6 9 12 9 5 14 11 8 9 4 7 11 7 11 10 9 16 14 14 8 4 0 7 3 1 1 4 2 5 7 8 4 2 4 5 1 3 5 7 9 3 4 12 10 20 21 19 4 5 12 15 17 15 14 12 10 14 13 13 12 12 12 11
5 2 7 4 16 14 14 12 9 7 8 14 15 13 4 9 12 6 2 5 5 9 8 10 8 12 7 7 4 6 7 8 9 8 10 5 11 8 8 11 6 8 15 15 11 5 4 3 7 4 5 2 5 10 10 11 10 6 6 8 5 4 2 4 3 8 7 8 10 11 16 18 4 9 11 14 14 13 12 12 10 10 12 11 12 13 12 12
3 4 1 8 15 16 12 9 8 12 11 4 8 12 12 7 4 5 9 1 2 5 1 3 4 10 7 10 9 6 3 6 5 7 6 7 10 7 9 10 8 3 3 3 8 5 3 3 14 4 3 11 9 9 17 16 15 14 16 15 16 10 7 7 10 4 3 5 8 10 15 21 5 7 7 5 1 6 7 8 8 8 11 11 11 12 13 12
4 6 2 11 16 20 16 11 7 5 4 11 13 9 7 5 10 10 3 3 2 3 3 2 4 4 3 9 8 2 1 2 5 6 6 12 5 12 2 11 7 10 10 7 12 12 9 3 6 12 13 9 10 4 3 4 2 3 8 10 13 12 11 9 11 6 1 7 7 11 12 24 2 10 7 6 4 1 4 5 8 8 9 11 13 13 13 13
2 4 4 13 16 19 13 8 5 7 8 7 7 8 5 7 4 3 12 10 8 5 1 4 11 9 8 9 5 5 5 7 5 10 4 5 10 11 4 4 4 2 2 2 2 3 7 2 4 13 8 7 1 3 2 2 2 5 7 7 8 14 13 11 9 4 5 4 8 9 13 18 8 8 5 4 3 6 7 8 14 15 9 10 13 11 12 11
3 2 2 5 15 16 13 10 8 14 9 6 6 10 4 6 9 7 8 10 8 6 10 7 3 12 10 2 3 12 7 11 4 15 11 13 13 4 5 6 6 4 3 1 5 4 3 3 9 7 6 6 12 2 2 2 6 9 11 10 11 8 8 7 2 2 5 13 19 12 15 11 13 11 7 6 6 7 9 12 13 15 7 9 11 10 9 10
2 1 2 8 11 10 13 9 12 11 12 13 14 16 13 8 9 17 14 12 9 6 1 6 14 4 5 7 9 8 10 14 7 7 11 10 14 10 1 2 1 5 9 3 4 2 8 2 8 11 13 15 12 16 16 5 8 7 10 12 13 15 13 7 9 7 13 17 26 14 13 20 25 21 23 21 16 13 17 16 14 9 11 12 10 9 11 10
4 6 4 3 8 8 9 4 5 9 10 12 13 14 14 14 7 14 15 15 13 13 14 3 4 4 8 5 8 12 16 16 15 4 7 8 12 7 4 1 6 11 5 2 3 3 2 1 9 12 14 14 16 19 7 3 5 6 9 16 13 14 18 17 10 10 16 21 15 17 22 21 21 24 25 25 22 21 22 22 13 8 9 8 8 10 11 11
5 7 4 4 2 13 10 7 9 8 13 14 11 7 18 19 12 8 13 9 14 16 10 13 6 5 7 12 15 16 17 15 15 16 14 14 12 11 3 4 3 4 1 1 3 1 1 8 15 19 22 22 22 24 23 22 20 10 9 13 16 17 14 17 16 23 24 11 16 14 24 20 20 23 24 27 27 25 21 21 22 10 10 12 13 13 12 10
8 4 6 8 10 6 12 13 13 12 10 12 11 8 16 16 15 15 9 16 7 12 9 5 14 19 16 17 13 12 10 15 10 14 13 17 13 15 12 6 8 10 11 4 2 4 4 11 12 15 22 23 24 26 26 26 21 21 20 18 17 18 16 19 25 28 19 15 18 18 25 24 19 17 22 27 28 28 27 26 24 17 9 10 11 12 12 13
8 5 6 3 7 5 17 21 24 21 20 18 9 17 17 18 21 20 12 5 13 10 18 11 18 21 23 22 14 14 12 10 10 13 13 13 20 13 9 6 9 8 9 4 3 3 1 11 12 16 18 16 17 20 24 26 25 24 24 22 17 14 19 24 26 13 17 20 25 26 27 25 20 23 24 30 29 28 27 23 21 21 18 15 7 9 12 14
6 5 5 4 8 9 10 7 12 15 17 17 13 15 13 21 23 18 16 13 10 14 15 24 16 19 23 21 21 18 18 19 21 16 12 18 12 7 10 13 3 3 4 7 4 1 8 10 13 13 13 16 20 23 25 27 26 28 25 22 20 16 20 24 17 7 17 24 24 26 28 28 22 28 26 32 29 25 25 28 29 23 18 17 13 11 15 17
5 7 8 9 12 7 7 11 9 10 13 13 16 12 15 21 23 21 20 18 21 12 17 27 25 24 20 22 22 23 22 23 24 27 22 13 13 12 12 1 14 4 5 1 2 2 9 10 7 9 12 16 18 24 22 21 24 24 22 20 20 25 30 25 17 14 19 24 26 24 20 18 20 28 31 27 25 26 29 31 26 18 20 22 16 15 17 20
5 6 7 6 7 2 8 5 9 9 13 8 12 15 16 21 22 19 20 16 23 23 18 22 22 20 17 21 23 21 22 25 27 27 22 20 16 5 7 5 11 10 5 7 6 6 8 5 7 8 14 18 16 19 21 21 18 17 20 26 33 32 27 25 26 27 23 18 19 15 17 20 24 20 20 22 27 29 30 26 17 17 20 20 15 14 15 19
Wind_Direction
16 14 14 11 9 5 3 1 356 354 352 351 350 348 347 348 347 349 350 346 341 342 338 323 324 312 307 310 321 341 314 254 266 241 230 278 92 121 109 72 76 206 193 241 211 192 195 211 212 170 207 207 166 234 130 213 277 220 223 240 258 264 262 341 267 269 16 294 128 180 193 219 224 156 196 147 241 236 249 218 229 219 216 211 121 135 142 141
12 13 13 11 6 3 359 357 355 353 351 349 347 346 345 343 343 345 346 344 344 337 334 335 316 319 312 305 309 299 285 273 275 275 257 83 72 79 68 329 129 146 214 235 222 219 245 214 217 183 212 227 130 226 160 173 207 224 251 255 270 286 355 334 296 293 283 275 306 205 195 219 253 159 159 204 224 216 233 236 221 225 222 175 147 152 156 160
9 9 7 5 4 2 359 357 355 353 350 343 344 345 342 338 338 341 342 342 341 339 331 332 329 315 318 309 282 261 285 262 270 264 148 354 73 59 359 342 247 158 221 295 302 275 263 297 280 208 220 247 171 209 205 163 203 231 264 258 260 298 293 269 260 264 270 301 254 242 216 222 232 229 130 225 248 222 226 233 214 225 227 208 175 166 171 174
6 5 3 2 1 359 358 357 355 352 346 345 343 342 341 337 337 338 340 339 340 341 331 328 323 326 308 314 67 254 241 289 266 178 87 57 32 52 16 264 148 205 244 254 286 275 279 262 247 221 223 248 158 216 211 171 229 117 230 246 291 14 306 304 217 261 275 283 263 262 143 233 228 202 177 234 242 247 245 234 234 218 226 218 179 175 176 183
2 0 360 357 356 356 352 352 350 347 346 343 343 337 337 337 335 334 337 337 337 338 334 325 321 316 314 301 266 233 267 281 232 60 62 40 19 16 9 73 224 221 242 293 242 233 250 231 197 223 245 236 212 208 240 151 243 327 243 267 297 289 280 318 45 57 326 350 279 253 221 254 143 213 221 231 241 252 253 257 229 237 225 236 165 180 180 186
357 355 356 355 353 352 350 347 348 346 344 341 339 335 335 335 333 332 332 335 334 332 331 325 312 309 310 290 261 228 236 269 87 103 21 20 10 26 35 186 222 256 213 203 230 221 222 201 208 211 222 241 214 229 171 187 159 248 246 243 256 270 267 60 291 95 192 237 236 237 248 275 202 244 221 230 235 244 70 42 27 247 264 351 158 166 182 190
354 353 353 351 348 347 346 346 343 342 340 336 334 333 332 332 331 330 328 329 334 328 327 323 317 294 309 312 240 237 224 274 136 102 46 1 1 77 109 132 202 203 210 230 220 222 221 241 222 245 250 259 255 244 174 188 185 246 275 315 260 238 242 271 264 113 221 240 243 272 19 251 242 253 248 239 237 245 248 123 164 132 115 154 160 173 185 192
351 351 351 349 346 344 344 343 341 340 338 336 331 330 330 328 328 327 324 324 327 328 328 319 309 299 287 249 189 215 219 254 98 119 94 16 165 128 176 198 193 212 223 232 248 238 258 262 257 289 259 259 41 247 116 235 205 234 249 269 275 250 254 251 231 226 225 238 250 289 259 247 246 262 297 252 248 247 247 233 180 171 180 187 192 187 193 198
347 350 349 347 344 340 340 340 338 337 336 333 330 326 325 325 324 324 321 318 326 323 324 338 311 302 267 279 246 277 244 80 72 77 84 139 138 145 239 195 193 214 238 245 263 285 281 263 258 250 304 297 54 259 166 263 246 215 259 308 269 258 256 243 243 240 233 241 207 231 244 252 256 338 268 259 256 245 245 244 226 202 204 207 208 203 197 200
345 345 346 345 342 339 339 337 337 336 334 332 327 324 320 322 322 320 320 316 322 322 316 320 318 291 276 210 239 256 55 243 91 74 87 127 126 164 190 298 251 232 233 207 248 241 250 326 330 26 297 271 253 266 65 217 298 359 301 291 279 271 272 242 243 251 226 238 201 227 250 253 133 179 270 242 262 238 232 231 226 217 225 222 217 213 207 205
339 341 342 341 339 336 337 334 336 334 332 331 326 322 319 317 318 317 317 312 318 312 317 294 286 329 226 235 246 263 87 224 312 74 101 178 235 222 110 349 317 253 250 245 264 334 338 286 110 115 223 308 44 228 226 284 350 300 323 293 270 256 247 242 234 241 198 247 217 230 256 263 210 210 249 229 133 174 194 209 213 216 229 226 221 216 212 212
330 334 339 337 333 332 333 333 333 333 331 328 325 321 318 316 318 317 307 308 308 313 330 325 334 268 277 251 243 264 334 40 265 139 114 200 114 71 18 312 283 276 272 260 177 21 349 19 205 232 292 23 265 341 241 14 288 304 304 291 280 276 253 227 225 224 199 225 149 176 275 242 212 232 240 234 142 173 194 211 213 219 225 224 222 216 211 212
321 328 332 329 325 331 331 332 330 330 330 327 324 321 317 315 314 314 310 307 311 305 320 38 303 243 269 258 245 72 265 99 90 116 110 106 111 102 100 112 216 229 279 280 157 118 309 203 247 262 277 282 283 281 65 259 256 285 257 261 285 272 262 245 192 167 170 201 138 182 274 269 201 224 246 195 168 174 209 223 225 227 223 222 218 215 214 209
314 321 326 322 324 330 329 328 327 326 327 325 322 319 315 311 310 313 307 297 292 288 234 281 267 241 223 262 97 232 98 84 110 178 134 151 178 111 146 136 132 144 184 147 83 94 166 344 265 283 117 264 282 72 251 213 204 254 284 214 261 279 270 133 172 166 201 139 169 184 255 274 277 208 225 154 174 180 215 221 228 229 222 217 214 213 214 211
312 316 319 319 324 324 327 321 320 323 323 324 319 313 309 306 311 308 304 282 148 117 184 267 235 217 223 254 94 102 335 332 231 178 123 201 174 143 158 132 83 77 81 84 105 86 166 182 224 222 215 82 272 255 264 258 222 229 252 254 223 229 269 169 187 174 200 141 193 183 246 259 278 293 144 149 170 200 228 233 233 235 230 215 210 210 212 214
309 314 319 318 316 323 321 316 312 320 322 321 316 308 302 299 305 309 294 315 141 167 220 201 179 249 309 267 115 130 208 215 201 92 122 319 248 243 125 119 108 113 128 77 92 146 196 204 267 331 58 180 233 253 274 277 261 225 229 263 269 257 263 249 188 203 251 121 189 198 251 283 276 94 128 136 174 200 231 245 246 250 249 234 216 208 209 210
308 311 313 314 318 322 320 311 313 319 320 318 314 300 296 292 293 278 255 217 169 212 219 295 162 179 264 80 122 219 219 161 69 166 123 348 316 157 149 151 165 129 115 134 181 199 152 235 127 243 222 252 254 249 264 262 267 256 214 250 268 271 277 267 105 246 189 204 202 216 243 247 260 271 225 179 205 200 233 256 257 258 254 246 234 215 204 205
305 308 309 313 318 322 318 315 317 321 322 321 309 297 289 297 299 261 211 218 118 204 221 294 224 237 233 102 247 230 50 125 180 117 80 60 268 195 211 195 131 172 159 166 161 226 168 228 150 266 255 218 219 220 219 250 253 284 294 266 260 263 253 261 268 156 175 201 241 228 229 251 259 264 271 261 212 219 240 252 260 260 257 252 242 232 219 206
301 306 306 310 317 319 314 314 321 324 323 322 301 284 269 250 254 254 205 149 175 180 207 173 185 197 283 125 123 115 132 88 101 182 166 154 172 193 188 332 183 166 208 217 172 197 165 239 224 254 248 230 216 213 218 236 260 280 289 284 290 284 278 270 292 130 187 189 225 234 249 258 259 257 263 265 266 255 245 252 261 259 259 257 250 244 227 217
292 300 305 309 315 315 315 314 321 322 326 326 333 321 206 224 183 190 186 216 225 232 299 160 201 280 309 175 182 66 127 218 158 197 116 138 146 176 201 194 156 247 234 222 168 196 164 215 227 234 236 238 234 227 236 253 271 286 285 279 272 274 273 271 270 151 179 263 246 248 254 259 262 264 265 268 272 273 272 265 261 258 261 256 251 246 232 219
286 291 301 306 310 315 314 316 317 320 324 304 302 293 287 308 268 273 107 239 233 252 261 253 238 262 272 78 128 155 184 201 251 162 168 159 221 170 193 185 195 221 219 225 239 107 184 232 237 242 248 261 276 289 256 259 263 269 272 274 275 268 269 268 277 141 182 224 269 264 269 264 264 265 264 266 267 264 266 266 259 265 264 260 254 248 237 222
278 288 296 302 305 307 312 312 316 322 311 278 282 298 358 52 2 326 307 278 230 225 312 262 7 272 233 221 101 272 80 263 203 175 154 191 173 202 173 190 203 230 184 170 141 191 210 225 242 246 263 265 92 273 267 267 270 266 256 263 270 263 267 273 133 151 149 200 267 272 273 272 271 268 266 259 256 255 247 252 267 272 272 271 263 255 238 181
277 282 288 299 299 305 309 312 314 318 325 331 318 301 32 345 315 321 285 275 275 232 233 225 228 242 247 123 172 151 234 225 243 173 176 186 167 220 193 195 225 229 173 191 213 210 236 236 247 259 215 247 254 211 247 254 248 249 243 238 242 258 279 274 134 154 199 214 288 303 290 277 271 256 250 247 249 249 248 252 259 260 265 263 263 261 217 184
267 274 279 288 300 304 311 316 308 282 348 341 313 15 357 327 311 292 242 255 290 212 212 227 246 242 238 233 169 181 214 244 220 220 159 173 185 182 228 215 234 232 226 215 219 226 227 240 72 118 217 219 250 228 211 234 243 223 231 244 253 254 249 254 305 294 250 229 256 288 273 268 249 249 236 235 236 243 252 255 255 260 252 259 271 260 218 195
260 265 276 285 298 312 304 319 296 353 313 266 134 22 305 309 293 310 285 280 226 233 70 271 195 247 209 61 142 188 233 252 226 57 169 185 176 148 223 218 230 241 234 230 235 241 248 248 120 160 198 208 232 248 224 226 256 246 221 227 242 257 268 274 313 350 311 291 152 323 308 266 251 240 235 165 119 207 245 241 246 240 253 253 251 231 197 193
251 259 268 283 302 316 302 291 54 335 317 346 18 344 295 257 279 283 284 273 269 167 75 221 147 218 114 184 120 191 55 252 55 104 168 261 344 228 109 218 201 246 238 233 239 242 252 102 171 229 230 208 234 247 252 206 245 247 251 249 249 255 266 272 282 339 280 268 102 318 331 292 144 233 214 195 179 184 178 212 247 239 225 238 253 198 189 194
242 244 259 277 309 326 314 23 351 308 274 101 30 326 303 280 287 271 272 249 267 160 175 43 220 160 13 80 151 110 230 221 98 87 160 19 204 240 234 216 169 237 16 51 352 239 197 190 188 217 224 233 239 249 235 215 235 247 59 303 127 255 254 257 264 242 266 291 283 166 241 282 282 210 223 221 235 200 210 244 253 249 224 212 234 185 178 189
234 233 240 258 250 317 318 299 310 311 3 20 328 319 297 277 255 246 236 291 268 113 142 195 276 23 323 137 287 213 348 56 191 169 3 31 279 191 224 231 218 215 180 180 238 71 187 180 190 194 205 215 233 239 60 195 214 256 47 20 54 325 268 228 236 263 271 302 275 206 191 270 262 216 196 205 224 219 226 238 248 253 253 238 223 195 177 187
225 222 223 199 150 175 288 287 295 292 36 343 324 307 318 279 263 280 271 260 126 123 337 124 306 192 104 131 203 243 243 118 314 61 276 66 294 339 221 244 254 292 197 203 243 227 37 42 190 197 176 225 189 59 351 194 223 132 135 83 81 86 88 213 256 260 279 273 261 201 173 242 280 153 183 193 204 207 220 230 240 244 244 241 216 171 177 178
218 213 198 158 158 212 232 220 243 52 341 350 305 297 284 256 222 229 213 247 76 219 140 84 187 182 154 158 212 202 224 184 66 131 179 194 165 239 338 1 283 241 246 250 273 289 98 137 17 224 218 235 92 61 38 20 53 122 139 143 113 165 200 187 227 257 293 254 249 205 189 193 276 189 156 152 195 198 205 221 238 243 233 226 174 170 168 173
212 205 185 166 215 314 13 265 123 123 82 305 268 272 253 223 242 233 241 221 355 171 104 163 183 127 164 177 215 191 218 202 152 159 150 212 172 217 224 197 207 262 259 255 253 247 191 155 216 226 62 100 122 92 57 30 148 175 145 208 218 228 199 238 213 178 248 266 234 177 191 190 241 127 173 192 186 193 178 210 246 262 252 230 165 171 171 169
209 200 184 189 213 171 214 292 128 145 167 216 274 228 212 227 206 227 238 74 268 157 178 179 176 184 202 213 233 165 183 189 185 188 193 185 184 182 198 204 155 197 239 216 247 169 223 214 197 98 253 177 162 188 99 123 170 215 195 183 221 249 178 230 163 222 209 248 95 150 184 221 230 238 236 205 191 195 181 231 266 269 255 235 173 157 165 162
207 202 187 201 186 208 219 158 141 139 153 213 294 237 208 225 246 222 233 125 262 111 174 38 172 187 207 199 235 163 130 216 169 198 195 188 212 223 214 223 188 217 271 177 225 200 247 67 175 187 85 222 180 200 174 205 190 189 196 190 198 250 238 254 246 239 263 250 142 141 151 245 283 278 228 240 215 201 208 225 239 243 248 251 183 142 149 167
210 201 194 202 210 208 163 134 145 148 155 272 198 154 235 220 245 88 207 185 222 45 65 99 105 182 189 202 206 161 228 219 147 193 189 201 200 231 214 221 230 253 214 274 240 208 265 250 200 154 226 158 192 214 206 237 165 201 200 181 208 216 229 256 246 249 249 281 126 198 122 230 117 213 184 215 214 207 219 232 224 228 234 136 72 84 127 179
214 206 209 205 212 213 143 155 148 162 119 128 224 197 187 229 244 230 221 217 193 80 112 49 177 180 230 247 54 215 234 217 189 163 197 204 209 210 211 204 206 209 168 241 215 177 229 251 139 157 27 148 192 211 94 105 152 191 197 219 250 234 225 241 261 291 324 330 288 171 219 251 236 88 136 224 192 195 203 225 218 221 218 158 148 183 190 191
214 220 199 213 195 182 147 154 159 158 129 125 165 213 225 218 236 157 256 259 168 213 129 151 190 211 227 225 173 220 150 239 163 197 228 215 232 228 215 203 192 190 179 206 158 225 79 252 115 125 125 179 171 12 190 190 228 163 161 207 214 24 232 261 283 273 77 286 260 181 256 250 256 260 169 169 174 177 202 219 215 223 219 202 207 213 202 197
220 197 209 202 200 161 154 156 157 142 138 162 165 221 232 255 238 266 345 242 284 214 144 246 208 205 218 234 201 186 192 185 201 191 232 168 247 233 218 216 193 194 205 186 231 227 239 246 91 176 221 88 338 332 339 6 356 109 215 214 63 347 22 249 261 247 247 257 274 271 257 276 264 290 148 169 181 187 213 214 219 221 220 214 223 224 214 205
219 202 227 216 188 155 155 155 146 136 146 171 196 221 206 238 224 240 147 139 161 196 229 207 245 190 235 238 240 180 159 198 162 165 253 172 269 171 190 219 191 197 207 214 226 265 127 281 177 279 32 79 71 182 241 175 313 265 238 344 188 204 203 212 242 246 259 255 270 270 271 264 255 248 150 191 181 208 212 211 217 218 216 219 224 230 229 209
214 202 233 224 148 158 146 150 143 143 148 186 208 237 233 246 230 225 185 208 207 203 216 224 243 204 232 248 269 157 160 206 149 201 213 186 242 150 182 173 200 207 207 198 227 243 217 241 245 339 148 98 158 191 223 174 187 201 312 258 23 329 243 192 198 247 232 263 269 276 283 273 191 243 172 181 184 210 205 205 207 215 213 216 221 230 232 218
178 239 245 95 143 139 146 144 142 157 169 197 205 227 200 233 223 220 211 195 219 215 231 250 240 267 240 260 262 244 203 227 167 211 208 164 239 149 191 174 194 196 211 194 204 211 251 134 263 86 300 246 227 185 214 172 180 193 222 232 190 211 11 351 299 232 221 242 245 270 283 274 283 225 153 167 192 196 195 198 200 208 217 215 221 225 228 233
188 230 303 139 136 133 130 137 154 177 200 267 251 243 240 235 191 230 228 159 274 27 318 262 247 240 242 252 236 232 221 207 228 237 210 244 223 263 173 183 199 165 112 72 222 191 199 174 237 172 192 212 238 165 199 206 194 187 184 202 198 174 198 214 246 198 234 226 237 250 255 272 255 105 131 84 186 177 199 214 195 205 213 216 221 226 230 229
208 247 196 151 143 144 144 179 207 197 213 200 213 199 231 217 258 241 199 107 191 224 62 228 238 250 260 256 260 223 137 233 233 250 228 247 212 239 78 198 207 138 151 175 202 209 196 186 227 223 222 234 223 214 4 27 9 292 216 218 196 196 183 194 231 207 101 236 262 248 269 264 180 122 106 94 119 179 195 228 243 233 221 216 221 224 221 225
237 265 12 154 163 155 166 205 183 195 221 238 336 294 250 255 268 231 229 191 231 149 241 244 233 251 234 247 244 260 168 248 177 232 253 246 268 263 354 240 74 193 260 317 355 345 47 175 213 248 269 280 1 58 33 34 248 284 261 252 211 217 210 218 231 212 220 183 213 232 233 260 261 78 340 321 242 227 235 232 254 258 236 213 224 221 226 225
216 173 117 228 181 169 178 190 200 224 232 298 242 249 229 242 229 242 232 203 197 175 215 212 338 223 246 222 210 248 222 265 204 256 272 272 272 342 21 296 156 234 195 249 250 139 193 180 222 250 264 281 268 233 207 190 212 220 226 216 225 239 224 230 27 98 242 223 241 234 248 251 262 117 151 242 253 203 219 228 235 252 220 213 220 223 224 232
285 229 196 179 210 215 206 185 211 208 213 221 221 230 233 226 226 235 231 227 189 204 141 229 221 130 208 191 235 241 247 241 269 235 235 252 254 251 327 250 233 251 245 282 9 267 243 198 181 228 227 232 229 232 237 220 197 218 233 231 212 211 212 208 232 216 242 239 240 244 261 254 268 286 291 285 275 266 262 256 255 244 241 227 218 218 222 216
203 262 154 214 210 234 261 279 268 216 211 221 239 236 233 239 242 238 226 242 198 212 215 201 17 193 219 189 225 231 238 229 227 212 200 223 253 253 204 188 207 234 254 300 281 179 222 269 217 229 236 236 237 252 274 82 137 199 212 219 221 212 214 221 228 231 228 238 238 238 248 264 272 276 277 281 279 270 274 274 257 217 235 236 222 221 217 218
310 253 146 211 230 234 249 230 234 188 220 191 224 155 225 227 225 252 184 245 210 224 217 216 206 199 211 213 227 237 231 237 221 235 237 249 232 238 135 178 232 203 99 285 248 189 119 222 223 238 241 246 253 258 265 265 260 220 222 218 212 213 208 212 215 232 233 250 252 241 253 255 252 262 269 273 273 272 268 269 277 242 223 220 221 224 228 231
252 240 210 180 194 188 226 246 244 237 247 199 223 188 222 222 215 235 194 221 215 208 221 201 221 223 224 217 215 235 219 235 217 233 227 239 256 248 248 188 216 190 170 192 125 167 205 243 240 249 246 244 247 252 256 263 261 263 259 251 230 213 211 213 224 231 229 234 249 249 248 249 253 254 262 265 268 271 273 274 275 276 234 219 220 229 234 235
249 332 297 333 254 223 213 215 212 218 223 211 220 212 224 223 225 216 208 196 209 204 202 228 210 215 222 225 222 238 220 245 231 225 223 229 227 231 245 250 233 161 166 177 146 179 153 238 243 238 256 255 259 260 260 261 264 263 257 255 239 211 215 219 231 224 226 242 245 248 254 263 262 260 257 263 264 269 274 277 278 272 273 272 238 207 229 237
231 240 259 292 280 294 321 308 246 235 237 216 233 212 220 224 231 227 222 204 212 219 198 232 220 213 219 220 223 230 223 224 234 239 219 224 235 203 239 217 221 32 164 198 155 265 187 231 214 241 256 252 251 253 253 253 256 258 256 255 263 271 257 239 241 215 227 239 243 244 247 254 256 260 261 261 265 270 276 275 270 275 282 273 264 257 260 259
319 326 323 294 285 275 266 265 269 251 238 225 234 226 229 230 233 231 235 213 219 198 185 222 221 232 220 224 225 231 231 236 238 239 246 224 223 204 219 193 210 184 153 149 140 245 193 248 216 239 242 243 236 241 239 243 249 254 261 264 263 255 255 258 246 217 227 239 243 247 251 255 256 256 257 262 268 267 266 265 270 281 279 276 274 262 258 262
329 312 307 308 278 189 258 246 255 265 246 232 237 234 229 235 234 234 252 236 238 233 217 212 217 228 227 225 225 225 228 231 236 240 244 251 254 259 209 205 194 177 179 201 173 189 186 209 213 208 236 240 238 237 240 246 251 250 245 243 240 242 246 254 254 251 242 238 248 246 240 233 244 253 269 267 263 261 259 259 274 272 268 267 267 259 254 254